Other Surface Observations
Issued by NWS Jacksonville, FL

Home | Current Version | Previous Version | Text Only | Print | Product List | Glossary On
Versions: 1 2 3 4 5 6 7 8 9 10 11 12 13 14 15 16 17 18 19 20 21 22 23 24 25 26 27 28 29 30 31 32 33 34 35 36 37 38 39 40 41 42 43 44 45 46 47 48 49 50
000
SXUS52 KJAX 290913
OSOJAX
OTHER SURFACE OBSERVATIONS
NATIONAL WEATHER SERVICE JACKSONVILLE FL
500 AM EDT WED MAR 29 2017

FLZ020>025-030>033-035>038-040-291000-
...FLORIDA...

CITY           SKY/WX    TMP DP  RH WIND       PRES   REMARKS
CECIL FIELD    PTCLDY    57  55  94 CALM      29.98S
HERLONG FIELD  NOT AVBL
FERNANDINA BCH NOT AVBL
LAKE CITY      FAIR      57  57 100 SW3       29.99S
JUNIPER SPGS   NOT AVBL
BUNNELL        NOT AVBL
KEYSTONE HGTS  FAIR      57  55  94 CALM      29.99S
$$

GAZ132>136-149>154-162>166-291000-
...GEORGIA...

CITY           SKY/WX    TMP DP  RH WIND       PRES   REMARKS
JESUP          FAIR      64  61  88 CALM      29.97R
HOMERVILLE     FAIR      64  64 100 W5        29.98F
SWAINSBORO     FAIR      61  61 100 CALM      29.98R
CORDELE        NOT AVBL
EASTMAN        FAIR      62  62  98 CALM      29.99S
$$

PLEASE NOTE:  THESE OBSERVATIONS ARE NOT QUALITY CONTROLLED AND MAY
NOT BE AVAILABLE AT ALL TIMES.
$$




USA.gov is the U.S. government's official web portal to all federal, state and local government web resources and services.